Location: Devore Heights
(34.2372°N, 117.4156°W)
Time: 09:54:54
(UTC+00:00)

Altair - Pass Details

Date: 17 September 2024
Orbit: 1501 x 1682 km, 47.2° (Epoch: 07 October)

Event Time Altitude Azimuth Distance (km) Brightness Sun altitude
Rises 19:06:23 0° 284° (WNW) 4,908 10.0 56.4°
Reaches altitude 10° 19:14:00 10° 248° (WSW) 3,872 9.8 56.9°
Maximum altitude 19:15:13 10° 240° (WSW) 3,840 9.9 56.9°
Drops below altitude 10° 19:16:28 10° 233° (SW) 3,853 9.9 57.0°
Sets 19:23:57 0° 195° (SSW) 4,775 10.5 57.3°
